Time,TemperatureF,DewpointF,PressureIn,WindDirection,WindDirectionDegrees,WindSpeedMPH,WindSpeedGustMPH,Humidity,HourlyPrecipIn,Conditions,Clouds,dailyrainin,SoftwareType,DateUTC
2013-02-17 00:02:00,48.0,41.5,30.05,NE,45,0.0,15.0,78,0.00,,,0.00,Weather View 32 v70,2013-02-17 08:02:00,
2013-02-17 00:07:00,48.0,41.5,30.05,ENE,67,3.0,15.0,78,0.00,,,0.00,Weather View 32 v70,2013-02-17 08:07:00,
2013-02-17 00:12:00,48.0,42.4,30.05,NNE,22,4.0,15.0,81,0.00,,,0.00,Weather View 32 v70,2013-02-17 08:12:00,
2013-02-17 00:18:00,48.0,41.5,30.05,NNE,22,0.0,15.0,78,0.00,,,0.00,Weather View 32 v70,2013-02-17 08:18:00,
2013-02-17 00:23:00,48.0,41.5,30.05,NE,45,8.0,15.0,78,0.00,,,0.00,Weather View 32 v70,2013-02-17 08:23:00,
2013-02-17 00:32:00,48.0,41.5,30.05,NE,45,3.0,16.0,78,0.00,,,0.00,Weather View 32 v70,2013-02-17 08:32:00,
2013-02-17 00:37:00,48.0,41.5,30.04,NE,45,4.0,16.0,78,0.00,,,0.00,Weather View 32 v70,2013-02-17 08:37:00,
2013-02-17 00:42:00,48.0,41.5,30.05,NE,45,7.0,16.0,78,0.00,,,0.00,Weather View 32 v70,2013-02-17 08:42:00,
2013-02-17 00:47:00,48.0,42.4,30.04,NE,45,5.0,16.0,81,0.00,,,0.00,Weather View 32 v70,2013-02-17 08:47:00,
2013-02-17 00:52:00,48.0,41.5,30.04,ENE,67,3.0,16.0,78,0.00,,,0.00,Weather View 32 v70,2013-02-17 08:52:00,
2013-02-17 00:57:00,48.0,41.5,30.05,NE,45,6.0,16.0,78,0.00,,,0.00,Weather View 32 v70,2013-02-17 08:57:00,
2013-02-17 00:59:00,48.0,41.5,30.05,NE,45,6.0,16.0,78,0.00,,,0.00,Weather View 32 v70,2013-02-17 08:59:00,
2013-02-17 01:02:00,48.0,41.5,30.05,NE,45,0.0,16.0,78,0.00,,,0.00,Weather View 32 v70,2013-02-17 09:02:00,
2013-02-17 01:07:00,48.0,41.5,30.05,ENE,67,0.0,16.0,78,0.00,,,0.00,Weather View 32 v70,2013-02-17 09:07:00,
2013-02-17 01:12:00,48.0,41.5,30.05,NNE,22,6.0,19.0,78,0.00,,,0.00,Weather View 32 v70,2013-02-17 09:12:00,
2013-02-17 01:17:00,48.0,41.5,30.04,NE,45,0.0,19.0,78,0.00,,,0.00,Weather View 32 v70,2013-02-17 09:17:00,
2013-02-17 01:22:00,48.0,42.4,30.04,NE,45,3.0,19.0,81,0.00,,,0.00,Weather View 32 v70,2013-02-17 09:22:00,
2013-02-17 01:27:00,48.0,41.5,30.04,NE,45,7.0,19.0,78,0.00,,,0.00,Weather View 32 v70,2013-02-17 09:27:00,
2013-02-17 01:37:00,48.0,41.5,30.04,NNE,22,2.0,19.0,78,0.00,,,0.00,Weather View 32 v70,2013-02-17 09:37:00,
2013-02-17 01:42:00,48.0,41.5,30.04,NE,45,5.0,19.0,78,0.00,,,0.00,Weather View 32 v70,2013-02-17 09:42:00,
2013-02-17 01:47:00,48.0,41.5,30.04,NE,45,0.0,19.0,78,0.00,,,0.00,Weather View 32 v70,2013-02-17 09:47:00,
2013-02-17 01:52:00,48.0,41.5,30.04,ENE,67,5.0,19.0,78,0.00,,,0.00,Weather View 32 v70,2013-02-17 09:52:00,
2013-02-17 01:57:00,48.0,42.4,30.04,ENE,67,13.0,19.0,81,0.00,,,0.00,Weather View 32 v70,2013-02-17 09:57:00,
2013-02-17 02:00:00,48.0,42.4,30.04,ENE,67,13.0,19.0,81,0.00,,,0.00,Weather View 32 v70,2013-02-17 10:00:00,
2013-02-17 02:02:00,48.0,41.5,30.04,NE,45,5.0,19.0,78,0.00,,,0.00,Weather View 32 v70,2013-02-17 10:02:00,
2013-02-17 02:07:00,48.0,41.5,30.04,NE,45,6.0,19.0,78,0.00,,,0.00,Weather View 32 v70,2013-02-17 10:07:00,
2013-02-17 02:12:00,48.0,41.5,30.04,NE,45,1.0,17.0,78,0.00,,,0.00,Weather View 32 v70,2013-02-17 10:12:00,
2013-02-17 02:17:00,48.0,41.5,30.04,NNE,22,5.0,17.0,78,0.00,,,0.00,Weather View 32 v70,2013-02-17 10:17:00,
2013-02-17 02:22:00,48.0,41.5,30.03,NE,45,0.0,17.0,78,0.00,,,0.00,Weather View 32 v70,2013-02-17 10:22:00,
2013-02-17 02:32:00,48.0,42.4,30.04,NNE,22,0.0,17.0,81,0.00,,,0.00,Weather View 32 v70,2013-02-17 10:32:00,
2013-02-17 02:42:00,48.0,41.5,30.03,NE,45,0.0,17.0,78,0.00,,,0.00,Weather View 32 v70,2013-02-17 10:42:00,
2013-02-17 02:47:00,48.0,41.5,30.03,NNE,22,3.0,17.0,78,0.00,,,0.00,Weather View 32 v70,2013-02-17 10:47:00,
2013-02-17 02:49:00,48.0,41.5,30.03,NNE,22,1.0,17.0,78,0.00,,,0.00,Weather View 32 v70,2013-02-17 10:49:00,
2013-02-17 02:53:00,48.0,42.4,30.03,NNE,22,6.0,17.0,81,0.00,,,0.00,Weather View 32 v70,2013-02-17 10:53:00,
2013-02-17 02:58:00,48.0,41.5,30.03,NNE,22,0.0,17.0,78,0.00,,,0.00,Weather View 32 v70,2013-02-17 10:58:00,
2013-02-17 03:03:00,48.0,41.5,30.03,NE,45,0.0,17.0,78,0.00,,,0.00,Weather View 32 v70,2013-02-17 11:03:00,
2013-02-17 03:08:00,48.0,41.5,30.03,NE,45,0.0,17.0,78,0.00,,,0.00,Weather View 32 v70,2013-02-17 11:08:00,
2013-02-17 03:13:00,48.0,41.5,30.03,NNE,22,0.0,17.0,78,0.00,,,0.00,Weather View 32 v70,2013-02-17 11:13:00,
2013-02-17 03:18:00,47.0,40.5,30.03,NNE,22,0.0,17.0,78,0.00,,,0.00,Weather View 32 v70,2013-02-17 11:18:00,
2013-02-17 03:23:00,47.0,40.5,30.03,NE,45,0.0,11.0,78,0.00,,,0.00,Weather View 32 v70,2013-02-17 11:23:00,
2013-02-17 03:28:00,47.0,41.5,30.03,NE,45,0.0,10.0,81,0.00,,,0.00,Weather View 32 v70,2013-02-17 11:28:00,
2013-02-17 03:33:00,47.0,40.5,30.03,NE,45,0.0,10.0,78,0.00,,,0.00,Weather View 32 v70,2013-02-17 11:33:00,
2013-02-17 03:38:00,47.0,40.5,30.03,NE,45,2.0,10.0,78,0.00,,,0.00,Weather View 32 v70,2013-02-17 11:38:00,
2013-02-17 03:43:00,47.0,40.5,30.03,NE,45,0.0,10.0,78,0.00,,,0.00,Weather View 32 v70,2013-02-17 11:43:00,
2013-02-17 03:48:00,47.0,40.5,30.03,NE,45,0.0,10.0,78,0.00,,,0.00,Weather View 32 v70,2013-02-17 11:48:00,
2013-02-17 03:53:00,47.0,40.5,30.03,NE,45,0.0,10.0,78,0.00,,,0.00,Weather View 32 v70,2013-02-17 11:53:00,
2013-02-17 03:58:00,47.0,40.5,30.03,NNE,22,0.0,10.0,78,0.00,,,0.00,Weather View 32 v70,2013-02-17 11:58:00,
2013-02-17 04:01:00,47.0,40.5,30.03,NNE,22,0.0,10.0,78,0.00,,,0.00,Weather View 32 v70,2013-02-17 12:01:00,
2013-02-17 04:03:00,47.0,40.5,30.03,NNE,22,0.0,8.0,78,0.00,,,0.00,Weather View 32 v70,2013-02-17 12:03:00,
2013-02-17 04:08:00,47.0,40.5,30.03,NNE,22,0.0,8.0,78,0.00,,,0.00,Weather View 32 v70,2013-02-17 12:08:00,
2013-02-17 04:13:00,47.0,40.5,30.02,NE,45,0.0,8.0,78,0.00,,,0.00,Weather View 32 v70,2013-02-17 12:13:00,
2013-02-17 04:18:00,47.0,41.5,30.02,NNE,22,4.0,8.0,81,0.00,,,0.00,Weather View 32 v70,2013-02-17 12:18:00,
2013-02-17 04:23:00,47.0,40.5,30.02,NE,45,7.0,10.0,78,0.00,,,0.00,Weather View 32 v70,2013-02-17 12:23:00,
2013-02-17 04:28:00,47.0,40.5,30.02,ENE,67,0.0,10.0,78,0.00,,,0.00,Weather View 32 v70,2013-02-17 12:28:00,
2013-02-17 04:33:00,47.0,40.5,30.02,NNE,22,0.0,10.0,78,0.00,,,0.00,Weather View 32 v70,2013-02-17 12:33:00,
2013-02-17 04:38:00,47.0,40.5,30.02,ENE,67,0.0,10.0,78,0.00,,,0.00,Weather View 32 v70,2013-02-17 12:38:00,
2013-02-17 04:43:00,47.0,40.5,30.02,NNE,22,0.0,10.0,78,0.00,,,0.00,Weather View 32 v70,2013-02-17 12:43:00,
2013-02-17 04:48:00,47.0,40.5,30.02,NE,45,0.0,10.0,78,0.00,,,0.00,Weather View 32 v70,2013-02-17 12:48:00,
2013-02-17 04:53:00,46.0,40.5,30.02,NE,45,1.0,10.0,81,0.00,,,0.00,Weather View 32 v70,2013-02-17 12:53:00,
2013-02-17 04:58:00,46.0,39.8,30.02,ENE,67,0.0,10.0,79,0.00,,,0.00,Weather View 32 v70,2013-02-17 12:58:00,
2013-02-17 05:02:00,46.0,39.8,30.02,ENE,67,0.0,10.0,79,0.00,,,0.00,Weather View 32 v70,2013-02-17 13:02:00,
2013-02-17 05:03:00,46.0,39.5,30.02,NE,45,0.0,10.0,78,0.00,,,0.00,Weather View 32 v70,2013-02-17 13:03:00,
2013-02-17 05:08:00,46.0,39.5,30.02,ENE,67,0.0,10.0,78,0.00,,,0.00,Weather View 32 v70,2013-02-17 13:08:00,
2013-02-17 05:12:00,46.0,39.5,30.02,NE,45,0.0,10.0,78,0.00,,,0.00,Weather View 32 v70,2013-02-17 13:12:00,
2013-02-17 05:18:00,46.0,39.5,30.03,NE,45,1.0,10.0,78,0.00,,,0.00,Weather View 32 v70,2013-02-17 13:18:00,
2013-02-17 05:22:00,46.0,39.5,30.03,NE,45,0.0,10.0,78,0.00,,,0.00,Weather View 32 v70,2013-02-17 13:22:00,
2013-02-17 05:27:00,46.0,40.5,30.03,NE,45,0.0,9.0,81,0.00,,,0.00,Weather View 32 v70,2013-02-17 13:27:00,
2013-02-17 05:37:00,46.0,39.8,30.03,NNE,22,0.0,9.0,79,0.00,,,0.00,Weather View 32 v70,2013-02-17 13:37:00,
2013-02-17 05:42:00,46.0,39.8,30.03,NNE,22,0.0,9.0,79,0.00,,,0.00,Weather View 32 v70,2013-02-17 13:42:00,
2013-02-17 05:47:00,45.0,38.9,30.03,NNE,22,0.0,9.0,79,0.00,,,0.00,Weather View 32 v70,2013-02-17 13:47:00,
2013-02-17 05:52:00,45.0,39.2,30.03,NE,45,0.0,9.0,80,0.00,,,0.00,Weather View 32 v70,2013-02-17 13:52:00,
2013-02-17 05:57:00,45.0,39.2,30.03,NE,45,0.0,9.0,80,0.00,,,0.00,Weather View 32 v70,2013-02-17 13:57:00,
2013-02-17 06:02:00,45.0,39.2,30.03,NE,45,0.0,9.0,80,0.00,,,0.00,Weather View 32 v70,2013-02-17 14:02:00,
2013-02-17 06:07:00,44.0,37.9,30.03,NE,45,0.0,9.0,79,0.00,,,0.00,Weather View 32 v70,2013-02-17 14:07:00,
2013-02-17 06:12:00,44.0,38.2,30.05,NE,45,0.0,9.0,80,0.00,,,0.00,Weather View 32 v70,2013-02-17 14:12:00,
2013-02-17 06:17:00,44.0,38.2,30.04,NE,45,0.0,8.0,80,0.00,,,0.00,Weather View 32 v70,2013-02-17 14:17:00,
2013-02-17 06:22:00,43.0,37.2,30.04,NE,45,0.0,8.0,80,0.00,,,0.00,Weather View 32 v70,2013-02-17 14:22:00,
2013-02-17 06:27:00,44.0,37.9,30.04,NE,45,0.0,8.0,79,0.00,,,0.00,Weather View 32 v70,2013-02-17 14:27:00,
2013-02-17 06:32:00,43.0,36.9,30.04,NE,45,0.0,6.0,79,0.00,,,0.00,Weather View 32 v70,2013-02-17 14:32:00,
2013-02-17 06:37:00,44.0,37.2,30.04,NE,45,0.0,0.0,77,0.00,,,0.00,Weather View 32 v70,2013-02-17 14:37:00,
2013-02-17 06:42:00,44.0,33.4,30.04,NE,45,0.0,0.0,66,0.00,,,0.00,Weather View 32 v70,2013-02-17 14:42:00,
2013-02-17 06:47:00,44.0,33.0,30.04,NE,45,0.0,0.0,65,0.00,,,0.00,Weather View 32 v70,2013-02-17 14:47:00,
2013-02-17 06:52:00,44.0,32.6,30.05,NNE,22,0.0,1.0,64,0.00,,,0.00,Weather View 32 v70,2013-02-17 14:52:00,
2013-02-17 06:57:00,44.0,32.6,30.05,NNE,22,0.0,2.0,64,0.00,,,0.00,Weather View 32 v70,2013-02-17 14:57:00,
2013-02-17 07:02:00,44.0,32.2,30.05,NNE,22,1.0,2.0,63,0.00,,,0.00,Weather View 32 v70,2013-02-17 15:02:00,
2013-02-17 07:07:00,45.0,32.7,30.04,NNE,22,1.0,6.0,62,0.00,,,0.00,Weather View 32 v70,2013-02-17 15:07:00,
2013-02-17 07:12:00,45.0,-50.3,30.04,NNE,22,2.0,6.0,1,0.00,,,0.00,Weather View 32 v70,2013-02-17 15:12:00,
2013-02-17 07:17:00,45.0,31.1,30.04,NNE,22,0.0,6.0,58,0.00,,,0.00,Weather View 32 v70,2013-02-17 15:17:00,
2013-02-17 07:22:00,46.0,32.0,30.04,NNE,22,0.0,6.0,58,0.00,,,0.00,Weather View 32 v70,2013-02-17 15:22:00,
2013-02-17 07:27:00,46.0,31.6,30.04,NNE,22,0.0,6.0,57,0.00,,,0.00,Weather View 32 v70,2013-02-17 15:27:00,
2013-02-17 07:32:00,46.0,30.7,30.04,NNE,22,0.0,6.0,55,0.00,,,0.00,Weather View 32 v70,2013-02-17 15:32:00,
2013-02-17 07:37:00,47.0,31.6,30.03,NNE,22,0.0,6.0,55,0.00,,,0.00,Weather View 32 v70,2013-02-17 15:37:00,
2013-02-17 07:42:00,47.0,31.6,30.04,NNE,22,0.0,6.0,55,0.00,,,0.00,Weather View 32 v70,2013-02-17 15:42:00,
2013-02-17 07:47:00,48.0,-48.4,30.03,NNE,22,0.0,6.0,1,0.00,,,0.00,Weather View 32 v70,2013-02-17 15:47:00,
2013-02-17 07:53:00,49.0,33.0,30.03,NNE,22,0.0,6.0,54,0.00,,,0.00,Weather View 32 v70,2013-02-17 15:53:00,
2013-02-17 07:58:00,50.0,34.0,30.03,NNE,22,0.0,6.0,54,0.00,,,0.00,Weather View 32 v70,2013-02-17 15:58:00,
2013-02-17 08:03:00,50.0,34.0,30.03,NE,45,0.0,6.0,54,0.00,,,0.00,Weather View 32 v70,2013-02-17 16:03:00,
2013-02-17 08:04:00,50.0,34.0,30.03,NE,45,0.0,6.0,54,0.00,,,0.00,Weather View 32 v70,2013-02-17 16:04:00,
2013-02-17 08:08:00,50.0,-47.2,30.03,ENE,67,0.0,4.0,1,0.00,,,0.00,Weather View 32 v70,2013-02-17 16:08:00,
2013-02-17 08:13:00,51.0,34.4,30.03,ENE,67,0.0,4.0,53,0.00,,,0.00,Weather View 32 v70,2013-02-17 16:13:00,
2013-02-17 08:23:00,51.0,33.5,30.03,ENE,67,0.0,3.0,51,0.00,,,0.00,Weather View 32 v70,2013-02-17 16:23:00,
2013-02-17 08:28:00,51.0,33.0,30.03,ENE,67,0.0,3.0,50,0.00,,,0.00,Weather View 32 v70,2013-02-17 16:28:00,
2013-02-17 08:33:00,52.0,33.9,30.03,ENE,67,0.0,3.0,50,0.00,,,0.00,Weather View 32 v70,2013-02-17 16:33:00,
2013-02-17 08:38:00,52.0,33.4,30.03,ENE,67,0.0,4.0,49,0.00,,,0.00,Weather View 32 v70,2013-02-17 16:38:00,
2013-02-17 08:43:00,52.0,33.9,30.03,NE,45,2.0,4.0,50,0.00,,,0.00,Weather View 32 v70,2013-02-17 16:43:00,
2013-02-17 08:48:00,52.0,32.9,30.03,ENE,67,4.0,7.0,48,0.00,,,0.00,Weather View 32 v70,2013-02-17 16:48:00,
2013-02-17 08:53:00,53.0,34.3,30.03,ENE,67,1.0,7.0,49,0.00,,,0.00,Weather View 32 v70,2013-02-17 16:53:00,
2013-02-17 08:58:00,53.0,-45.3,30.03,ENE,67,2.0,7.0,1,0.00,,,0.00,Weather View 32 v70,2013-02-17 16:58:00,
2013-02-17 09:03:00,53.0,33.8,30.03,ENE,67,0.0,7.0,48,0.00,,,0.00,Weather View 32 v70,2013-02-17 17:03:00,
2013-02-17 09:08:00,54.0,34.7,30.03,NE,45,0.0,7.0,48,0.00,,,0.00,Weather View 32 v70,2013-02-17 17:08:00,
2013-02-17 09:13:00,55.0,35.6,30.03,ENE,67,0.0,7.0,48,0.00,,,0.00,Weather View 32 v70,2013-02-17 17:13:00,
2013-02-17 09:22:00,56.0,36.0,30.03,ENE,67,0.0,7.0,47,0.00,,,0.00,Weather View 32 v70,2013-02-17 17:22:00,
2013-02-17 09:32:00,57.0,-42.9,30.03,ENE,67,0.0,7.0,1,0.00,,,0.00,Weather View 32 v70,2013-02-17 17:32:00,
2013-02-17 09:42:00,57.0,36.9,30.01,NE,45,0.0,7.0,47,0.00,,,0.00,Weather View 32 v70,2013-02-17 17:42:00,
2013-02-17 09:47:00,57.0,36.9,30.03,ENE,67,1.0,7.0,47,0.00,,,0.00,Weather View 32 v70,2013-02-17 17:47:00,
2013-02-17 09:52:00,57.0,36.9,30.03,ENE,67,0.0,6.0,47,0.00,,,0.00,Weather View 32 v70,2013-02-17 17:52:00,
2013-02-17 09:57:00,57.0,36.9,30.03,ENE,67,0.0,6.0,47,0.00,,,0.00,Weather View 32 v70,2013-02-17 17:57:00,
2013-02-17 10:02:00,57.0,36.9,30.02,NE,45,0.0,6.0,47,0.00,,,0.00,Weather View 32 v70,2013-02-17 18:02:00,
2013-02-17 10:07:00,58.0,-42.3,30.02,NE,45,0.0,6.0,1,0.00,,,0.00,Weather View 32 v70,2013-02-17 18:07:00,
2013-02-17 10:12:00,59.0,38.8,30.02,ENE,67,0.0,6.0,47,0.00,,,0.00,Weather View 32 v70,2013-02-17 18:12:00,
2013-02-17 10:17:00,59.0,38.8,30.02,ENE,67,0.0,6.0,47,0.00,,,0.00,Weather View 32 v70,2013-02-17 18:17:00,
2013-02-17 10:22:00,60.0,39.7,30.01,NNE,22,0.0,6.0,47,0.00,,,0.00,Weather View 32 v70,2013-02-17 18:22:00,
2013-02-17 10:27:00,59.0,38.8,30.01,ENE,67,0.0,6.0,47,0.00,,,0.00,Weather View 32 v70,2013-02-17 18:27:00,
2013-02-17 10:32:00,59.0,38.8,30.01,ENE,67,0.0,6.0,47,0.00,,,0.00,Weather View 32 v70,2013-02-17 18:32:00,
2013-02-17 10:37:00,60.0,39.1,30.01,NE,45,0.0,6.0,46,0.00,,,0.00,Weather View 32 v70,2013-02-17 18:37:00,
2013-02-17 10:48:00,60.0,39.7,30.01,ENE,67,0.0,6.0,47,0.00,,,0.00,Weather View 32 v70,2013-02-17 18:48:00,
2013-02-17 10:53:00,60.0,39.1,30.01,ENE,67,4.0,6.0,46,0.00,,,0.00,Weather View 32 v70,2013-02-17 18:53:00,
2013-02-17 11:03:00,60.0,-41.1,30.01,ENE,67,0.0,6.0,1,0.00,,,0.00,Weather View 32 v70,2013-02-17 19:03:00,
2013-02-17 11:08:00,61.0,40.0,30.01,ENE,67,0.0,6.0,46,0.00,,,0.00,Weather View 32 v70,2013-02-17 19:08:00,
2013-02-17 11:13:00,61.0,39.5,30.01,ENE,67,0.0,6.0,45,0.00,,,0.00,Weather View 32 v70,2013-02-17 19:13:00,
2013-02-17 11:18:00,62.0,40.4,30.00,ENE,67,0.0,6.0,45,0.00,,,0.00,Weather View 32 v70,2013-02-17 19:18:00,
2013-02-17 11:23:00,62.0,40.4,30.00,ENE,67,0.0,6.0,45,0.00,,,0.00,Weather View 32 v70,2013-02-17 19:23:00,
2013-02-17 11:28:00,63.0,41.3,30.00,ENE,67,1.0,6.0,45,0.00,,,0.00,Weather View 32 v70,2013-02-17 19:28:00,
2013-02-17 11:33:00,63.0,41.8,29.99,SW,225,0.0,6.0,46,0.00,,,0.00,Weather View 32 v70,2013-02-17 19:33:00,
2013-02-17 11:38:00,64.0,-38.7,29.99,SW,225,0.0,6.0,1,0.00,,,0.00,Weather View 32 v70,2013-02-17 19:38:00,
2013-02-17 11:43:00,63.0,41.8,29.99,NE,45,0.0,7.0,46,0.00,,,0.00,Weather View 32 v70,2013-02-17 19:43:00,
2013-02-17 11:48:00,62.0,39.2,29.99,NE,45,2.0,9.0,43,0.00,,,0.00,Weather View 32 v70,2013-02-17 19:48:00,
2013-02-17 11:53:00,62.0,39.8,30.00,NE,45,5.0,10.0,44,0.00,,,0.00,Weather View 32 v70,2013-02-17 19:53:00,
2013-02-17 11:58:00,61.0,40.6,30.00,NE,45,5.0,10.0,47,0.00,,,0.00,Weather View 32 v70,2013-02-17 19:58:00,
2013-02-17 12:03:00,61.0,40.6,30.00,NE,45,6.0,10.0,47,0.00,,,0.00,Weather View 32 v70,2013-02-17 20:03:00,
2013-02-17 12:06:00,61.0,40.6,30.00,NE,45,6.0,10.0,47,0.00,,,0.00,Weather View 32 v70,2013-02-17 20:06:00,
2013-02-17 12:13:00,61.0,-40.5,29.99,NE,45,4.0,10.0,1,0.00,,,0.00,Weather View 32 v70,2013-02-17 20:13:00,
2013-02-17 12:18:00,60.0,39.7,29.99,NE,45,5.0,10.0,47,0.00,,,0.00,Weather View 32 v70,2013-02-17 20:18:00,
2013-02-17 12:23:00,60.0,39.1,29.99,NE,45,6.0,10.0,46,0.00,,,0.00,Weather View 32 v70,2013-02-17 20:23:00,
2013-02-17 12:28:00,60.0,38.5,29.99,NE,45,2.0,10.0,45,0.00,,,0.00,Weather View 32 v70,2013-02-17 20:28:00,
2013-02-17 12:38:00,60.0,38.0,29.99,NE,45,0.0,10.0,44,0.00,,,0.00,Weather View 32 v70,2013-02-17 20:38:00,
2013-02-17 12:43:00,60.0,37.4,29.99,NE,45,5.0,12.0,43,0.00,,,0.00,Weather View 32 v70,2013-02-17 20:43:00,
2013-02-17 12:48:00,60.0,-41.1,29.98,NE,45,9.0,12.0,1,0.00,,,0.00,Weather View 32 v70,2013-02-17 20:48:00,
2013-02-17 12:53:00,60.0,36.8,29.98,NE,45,7.0,12.0,42,0.00,,,0.00,Weather View 32 v70,2013-02-17 20:53:00,
2013-02-17 12:58:00,60.0,38.0,29.98,NE,45,3.0,12.0,44,0.00,,,0.00,Weather View 32 v70,2013-02-17 20:58:00,
2013-02-17 13:03:00,60.0,38.0,29.98,NE,45,7.0,12.0,44,0.00,,,0.00,Weather View 32 v70,2013-02-17 21:03:00,
2013-02-17 13:07:00,60.0,38.0,29.98,NE,45,7.0,12.0,44,0.00,,,0.00,Weather View 32 v70,2013-02-17 21:07:00,
2013-02-17 13:08:00,60.0,36.2,29.98,NE,45,0.0,12.0,41,0.00,,,0.00,Weather View 32 v70,2013-02-17 21:08:00,
2013-02-17 13:13:00,59.0,37.1,29.98,NE,45,7.0,12.0,44,0.00,,,0.00,Weather View 32 v70,2013-02-17 21:13:00,
2013-02-17 13:18:00,59.0,35.9,29.97,NNE,22,2.0,12.0,42,0.00,,,0.00,Weather View 32 v70,2013-02-17 21:18:00,
2013-02-17 13:23:00,59.0,-41.7,29.98,NE,45,4.0,12.0,1,0.00,,,0.00,Weather View 32 v70,2013-02-17 21:23:00,
2013-02-17 13:28:00,59.0,35.3,29.98,NE,45,0.0,12.0,41,0.00,,,0.00,Weather View 32 v70,2013-02-17 21:28:00,
2013-02-17 13:33:00,59.0,35.3,29.98,NE,45,0.0,12.0,41,0.00,,,0.00,Weather View 32 v70,2013-02-17 21:33:00,
2013-02-17 13:38:00,59.0,35.9,29.98,NE,45,6.0,12.0,42,0.00,,,0.00,Weather View 32 v70,2013-02-17 21:38:00,
2013-02-17 13:43:00,60.0,36.2,29.98,NE,45,5.0,12.0,41,0.00,,,0.00,Weather View 32 v70,2013-02-17 21:43:00,
2013-02-17 13:48:00,60.0,36.2,29.97,NE,45,5.0,12.0,41,0.00,,,0.00,Weather View 32 v70,2013-02-17 21:48:00,
2013-02-17 13:53:00,61.0,37.1,29.96,NE,45,8.0,12.0,41,0.00,,,0.00,Weather View 32 v70,2013-02-17 21:53:00,
2013-02-17 13:58:00,60.0,-41.1,29.97,NE,45,3.0,13.0,1,0.00,,,0.00,Weather View 32 v70,2013-02-17 21:58:00,
2013-02-17 14:03:00,60.0,35.6,29.97,NE,45,3.0,13.0,40,0.00,,,0.00,Weather View 32 v70,2013-02-17 22:03:00,
2013-02-17 14:07:00,60.0,35.6,29.97,NE,45,3.0,13.0,40,0.00,,,0.00,Weather View 32 v70,2013-02-17 22:07:00,
2013-02-17 14:08:00,60.0,34.9,29.97,NE,45,0.0,13.0,39,0.00,,,0.00,Weather View 32 v70,2013-02-17 22:08:00,
2013-02-17 14:13:00,60.0,34.9,29.97,NE,45,0.0,13.0,39,0.00,,,0.00,Weather View 32 v70,2013-02-17 22:13:00,
2013-02-17 14:23:00,61.0,35.8,29.96,NE,45,4.0,13.0,39,0.00,,,0.00,Weather View 32 v70,2013-02-17 22:23:00,
2013-02-17 14:28:00,60.0,35.6,29.96,NE,45,6.0,15.0,40,0.00,,,0.00,Weather View 32 v70,2013-02-17 22:28:00,
2013-02-17 14:33:00,60.0,-41.1,29.97,NE,45,4.0,15.0,1,0.00,,,0.00,Weather View 32 v70,2013-02-17 22:33:00,
2013-02-17 14:38:00,60.0,34.9,29.97,NE,45,9.0,15.0,39,0.00,,,0.00,Weather View 32 v70,2013-02-17 22:38:00,
2013-02-17 14:43:00,60.0,34.9,29.97,NE,45,3.0,15.0,39,0.00,,,0.00,Weather View 32 v70,2013-02-17 22:43:00,
2013-02-17 14:48:00,60.0,34.9,29.96,SW,225,9.0,15.0,39,0.00,,,0.00,Weather View 32 v70,2013-02-17 22:48:00,
2013-02-17 14:53:00,59.0,34.0,29.96,NE,45,6.0,15.0,39,0.00,,,0.00,Weather View 32 v70,2013-02-17 22:53:00,
2013-02-17 14:58:00,60.0,34.3,29.97,NE,45,5.0,15.0,38,0.00,,,0.00,Weather View 32 v70,2013-02-17 22:58:00,
2013-02-17 15:03:00,60.0,34.3,29.96,NE,45,5.0,15.0,38,0.00,,,0.00,Weather View 32 v70,2013-02-17 23:03:00,
2013-02-17 15:08:00,60.0,-41.1,29.96,NE,45,6.0,15.0,1,0.00,,,0.00,Weather View 32 v70,2013-02-17 23:08:00,
2013-02-17 15:13:00,59.0,33.4,29.96,NE,45,5.0,15.0,38,0.00,,,0.00,Weather View 32 v70,2013-02-17 23:13:00,
2013-02-17 15:18:00,59.0,33.4,29.97,NE,45,1.0,15.0,38,0.00,,,0.00,Weather View 32 v70,2013-02-17 23:18:00,
2013-02-17 15:23:00,59.0,33.4,29.96,NE,45,2.0,16.0,38,0.00,,,0.00,Weather View 32 v70,2013-02-17 23:23:00,
2013-02-17 15:28:00,59.0,33.4,29.96,NE,45,7.0,16.0,38,0.00,,,0.00,Weather View 32 v70,2013-02-17 23:28:00,
2013-02-17 15:33:00,59.0,33.4,29.96,NE,45,5.0,16.0,38,0.00,,,0.00,Weather View 32 v70,2013-02-17 23:33:00,
2013-02-17 15:38:00,59.0,33.4,29.97,SW,225,2.0,16.0,38,0.00,,,0.00,Weather View 32 v70,2013-02-17 23:38:00,
2013-02-17 15:43:00,59.0,-41.7,29.96,NE,45,9.0,18.0,1,0.00,,,0.00,Weather View 32 v70,2013-02-17 23:43:00,
2013-02-17 15:48:00,59.0,33.4,29.96,SW,225,4.0,18.0,38,0.00,,,0.00,Weather View 32 v70,2013-02-17 23:48:00,
2013-02-17 15:53:00,59.0,33.4,29.96,SW,225,8.0,18.0,38,0.00,,,0.00,Weather View 32 v70,2013-02-17 23:53:00,
2013-02-17 15:58:00,59.0,33.4,29.96,NE,45,6.0,18.0,38,0.00,,,0.00,Weather View 32 v70,2013-02-17 23:58:00,
2013-02-17 16:03:00,58.0,32.5,29.96,ENE,67,5.0,18.0,38,0.00,,,0.00,Weather View 32 v70,2013-02-18 00:03:00,
2013-02-17 16:08:00,58.0,32.5,29.96,NE,45,9.0,18.0,38,0.00,,,0.00,Weather View 32 v70,2013-02-18 00:08:00,
2013-02-17 16:13:00,58.0,32.5,29.96,WSW,247,5.0,18.0,38,0.00,,,0.00,Weather View 32 v70,2013-02-18 00:13:00,
2013-02-17 16:18:00,58.0,-42.3,29.96,WSW,247,9.0,18.0,1,0.00,,,0.00,Weather View 32 v70,2013-02-18 00:18:00,
2013-02-17 16:23:00,57.0,32.2,29.96,NE,45,5.0,18.0,39,0.00,,,0.00,Weather View 32 v70,2013-02-18 00:23:00,
2013-02-17 16:28:00,57.0,32.2,29.97,NE,45,3.0,18.0,39,0.00,,,0.00,Weather View 32 v70,2013-02-18 00:28:00,
2013-02-17 16:33:00,57.0,32.9,29.96,NE,45,3.0,18.0,40,0.00,,,0.00,Weather View 32 v70,2013-02-18 00:33:00,
2013-02-17 16:38:00,56.0,32.0,29.96,WSW,247,9.0,18.0,40,0.00,,,0.00,Weather View 32 v70,2013-02-18 00:38:00,
2013-02-17 16:43:00,56.0,32.6,29.96,WSW,247,3.0,15.0,41,0.00,,,0.00,Weather View 32 v70,2013-02-18 00:43:00,
2013-02-17 16:48:00,56.0,32.6,29.97,NNE,22,3.0,15.0,41,0.00,,,0.00,Weather View 32 v70,2013-02-18 00:48:00,
2013-02-17 16:53:00,56.0,-43.5,29.97,NE,45,9.0,15.0,1,0.00,,,0.00,Weather View 32 v70,2013-02-18 00:53:00,
2013-02-17 16:58:00,56.0,33.2,29.97,West,270,6.0,15.0,42,0.00,,,0.00,Weather View 32 v70,2013-02-18 00:58:00,
2013-02-17 17:03:00,55.0,33.4,29.97,NE,45,2.0,15.0,44,0.00,,,0.00,Weather View 32 v70,2013-02-18 01:03:00,
2013-02-17 17:08:00,55.0,34.0,29.97,West,270,7.0,15.0,45,0.00,,,0.00,Weather View 32 v70,2013-02-18 01:08:00,
2013-02-17 17:09:00,55.0,34.0,29.97,West,270,7.0,15.0,45,0.00,,,0.00,Weather View 32 v70,2013-02-18 01:09:00,
2013-02-17 17:18:00,53.0,38.6,29.97,WNW,292,0.0,16.0,58,0.00,,,0.00,Weather View 32 v70,2013-02-18 01:18:00,
2013-02-17 17:23:00,53.0,39.0,29.98,SW,225,9.0,16.0,59,0.00,,,0.00,Weather View 32 v70,2013-02-18 01:23:00,
2013-02-17 17:28:00,52.0,17.2,29.98,SW,225,15.0,16.0,25,0.00,,,0.00,Weather View 32 v70,2013-02-18 01:28:00,
2013-02-17 17:33:00,52.0,38.1,29.98,WSW,247,4.0,16.0,59,0.00,,,0.00,Weather View 32 v70,2013-02-18 01:33:00,
2013-02-17 17:38:00,52.0,38.1,29.98,SW,225,2.0,16.0,59,0.00,,,0.00,Weather View 32 v70,2013-02-18 01:38:00,
2013-02-17 17:43:00,51.0,28.1,29.98,WNW,292,0.0,16.0,41,0.00,,,0.00,Weather View 32 v70,2013-02-18 01:43:00,
2013-02-17 17:48:00,51.0,37.6,29.98,WNW,292,1.0,16.0,60,0.00,,,0.00,Weather View 32 v70,2013-02-18 01:48:00,
2013-02-17 17:53:00,51.0,38.0,29.99,SW,225,2.0,16.0,61,0.00,,,0.00,Weather View 32 v70,2013-02-18 01:53:00,
2013-02-17 17:58:00,51.0,38.0,29.98,WSW,247,3.0,16.0,61,0.00,,,0.00,Weather View 32 v70,2013-02-18 01:58:00,
2013-02-17 18:03:00,51.0,38.4,29.98,SW,225,3.0,16.0,62,0.00,,,0.00,Weather View 32 v70,2013-02-18 02:03:00,
2013-02-17 18:08:00,50.0,37.9,29.98,WSW,247,1.0,16.0,63,0.00,,,0.00,Weather View 32 v70,2013-02-18 02:08:00,
2013-02-17 18:13:00,50.0,38.7,29.98,SW,225,1.0,16.0,65,0.00,,,0.00,Weather View 32 v70,2013-02-18 02:13:00,
2013-02-17 18:18:00,50.0,40.2,29.98,SW,225,3.0,15.0,69,0.00,,,0.00,Weather View 32 v70,2013-02-18 02:18:00,
2013-02-17 18:23:00,50.0,39.5,29.98,SW,225,3.0,15.0,67,0.00,,,0.00,Weather View 32 v70,2013-02-18 02:23:00,
2013-02-17 18:28:00,50.0,39.8,29.98,SW,225,1.0,15.0,68,0.00,,,0.00,Weather View 32 v70,2013-02-18 02:28:00,
2013-02-17 18:38:00,50.0,41.0,29.98,WSW,247,4.0,13.0,71,0.00,,,0.00,Weather View 32 v70,2013-02-18 02:38:00,
2013-02-17 18:43:00,50.0,41.0,29.98,SW,225,6.0,15.0,71,0.00,,,0.00,Weather View 32 v70,2013-02-18 02:43:00,
2013-02-17 18:48:00,50.0,41.3,29.98,WSW,247,0.0,15.0,72,0.00,,,0.00,Weather View 32 v70,2013-02-18 02:48:00,
2013-02-17 18:53:00,50.0,42.7,29.98,WSW,247,4.0,15.0,76,0.00,,,0.00,Weather View 32 v70,2013-02-18 02:53:00,
2013-02-17 18:58:00,49.0,41.1,29.98,WSW,247,10.0,15.0,74,0.00,,,0.00,Weather View 32 v70,2013-02-18 02:58:00,
2013-02-17 19:02:00,49.0,41.4,29.99,WSW,247,6.0,15.0,75,0.00,,,0.00,Weather View 32 v70,2013-02-18 03:02:00,
2013-02-17 19:07:00,49.0,41.4,29.99,ENE,67,0.0,15.0,75,0.00,,,0.00,Weather View 32 v70,2013-02-18 03:07:00,
2013-02-17 19:10:00,49.0,41.4,29.99,ENE,67,0.0,15.0,75,0.00,,,0.00,Weather View 32 v70,2013-02-18 03:10:00,
2013-02-17 19:12:00,49.0,41.8,29.99,West,270,6.0,15.0,76,0.00,,,0.00,Weather View 32 v70,2013-02-18 03:12:00,
2013-02-17 19:17:00,49.0,42.1,29.99,SW,225,5.0,15.0,77,0.00,,,0.00,Weather View 32 v70,2013-02-18 03:17:00,
2013-02-17 19:22:00,49.0,42.1,29.99,SW,225,7.0,15.0,77,0.00,,,0.00,Weather View 32 v70,2013-02-18 03:22:00,
2013-02-17 19:27:00,49.0,43.1,29.99,SW,225,1.0,15.0,80,0.00,,,0.00,Weather View 32 v70,2013-02-18 03:27:00,
2013-02-17 19:32:00,49.0,42.4,29.99,SW,225,2.0,15.0,78,0.00,,,0.00,Weather View 32 v70,2013-02-18 03:32:00,
2013-02-17 19:37:00,49.0,42.4,29.99,SW,225,7.0,15.0,78,0.00,,,0.00,Weather View 32 v70,2013-02-18 03:37:00,
2013-02-17 19:47:00,49.0,42.4,29.99,WSW,247,2.0,15.0,78,0.00,,,0.00,Weather View 32 v70,2013-02-18 03:47:00,
2013-02-17 19:52:00,48.0,41.5,29.99,SW,225,5.0,15.0,78,0.00,,,0.00,Weather View 32 v70,2013-02-18 03:52:00,
2013-02-17 19:57:00,48.0,41.1,29.99,WNW,292,0.0,15.0,77,0.00,,,0.00,Weather View 32 v70,2013-02-18 03:57:00,
2013-02-17 20:02:00,49.0,43.1,29.99,West,270,0.0,15.0,80,0.00,,,0.00,Weather View 32 v70,2013-02-18 04:02:00,
2013-02-17 20:07:00,48.0,41.1,29.99,WSW,247,6.0,15.0,77,0.00,,,0.00,Weather View 32 v70,2013-02-18 04:07:00,
2013-02-17 20:10:00,48.0,41.1,29.99,WSW,247,6.0,15.0,77,0.00,,,0.00,Weather View 32 v70,2013-02-18 04:10:00,
2013-02-17 20:12:00,48.0,41.1,29.99,WSW,247,6.0,15.0,77,0.00,,,0.00,Weather View 32 v70,2013-02-18 04:12:00,
2013-02-17 20:17:00,48.0,41.5,29.99,WSW,247,7.0,15.0,78,0.00,,,0.00,Weather View 32 v70,2013-02-18 04:17:00,
2013-02-17 20:22:00,48.0,41.5,29.99,WSW,247,4.0,15.0,78,0.00,,,0.00,Weather View 32 v70,2013-02-18 04:22:00,
2013-02-17 20:27:00,48.0,41.5,29.99,SW,225,7.0,15.0,78,0.00,,,0.00,Weather View 32 v70,2013-02-18 04:27:00,
2013-02-17 20:37:00,48.0,42.1,29.99,WNW,292,6.0,15.0,80,0.00,,,0.00,Weather View 32 v70,2013-02-18 04:37:00,
2013-02-17 20:42:00,48.0,41.5,29.99,NNE,22,9.0,17.0,78,0.00,,,0.00,Weather View 32 v70,2013-02-18 04:42:00,
2013-02-17 20:47:00,48.0,41.1,30.00,WNW,292,0.0,17.0,77,0.00,,,0.00,Weather View 32 v70,2013-02-18 04:47:00,
2013-02-17 20:52:00,48.0,41.1,30.00,ENE,67,0.0,17.0,77,0.00,,,0.00,Weather View 32 v70,2013-02-18 04:52:00,
2013-02-17 20:57:00,48.0,41.1,30.00,NE,45,2.0,17.0,77,0.00,,,0.00,Weather View 32 v70,2013-02-18 04:57:00,
2013-02-17 21:02:00,48.0,41.5,30.00,West,270,3.0,17.0,78,0.00,,,0.00,Weather View 32 v70,2013-02-18 05:02:00,
2013-02-17 21:07:00,48.0,41.5,30.00,WSW,247,1.0,17.0,78,0.00,,,0.00,Weather View 32 v70,2013-02-18 05:07:00,
2013-02-17 21:12:00,48.0,42.4,30.00,SW,225,0.0,17.0,81,0.00,,,0.00,Weather View 32 v70,2013-02-18 05:12:00,
2013-02-17 21:17:00,47.0,40.5,30.00,NNE,22,0.0,17.0,78,0.00,,,0.00,Weather View 32 v70,2013-02-18 05:17:00,
2013-02-17 21:22:00,47.0,40.5,30.01,SW,225,1.0,17.0,78,0.00,,,0.00,Weather View 32 v70,2013-02-18 05:22:00,
2013-02-17 21:27:00,47.0,40.5,30.01,SE,135,0.0,17.0,78,0.00,,,0.00,Weather View 32 v70,2013-02-18 05:27:00,
2013-02-17 21:32:00,47.0,40.5,30.01,SE,135,0.0,17.0,78,0.00,,,0.00,Weather View 32 v70,2013-02-18 05:32:00,
2013-02-17 21:37:00,47.0,40.5,30.01,ESE,112,0.0,17.0,78,0.00,,,0.00,Weather View 32 v70,2013-02-18 05:37:00,
2013-02-17 21:42:00,47.0,40.5,30.01,ENE,67,0.0,13.0,78,0.00,,,0.00,Weather View 32 v70,2013-02-18 05:42:00,
2013-02-17 21:48:00,47.0,40.5,30.01,SE,135,0.0,13.0,78,0.00,,,0.00,Weather View 32 v70,2013-02-18 05:48:00,
2013-02-17 21:53:00,47.0,40.5,30.01,SE,135,2.0,10.0,78,0.00,,,0.00,Weather View 32 v70,2013-02-18 05:53:00,
2013-02-17 21:58:00,47.0,40.5,30.01,NNE,22,0.0,10.0,78,0.00,,,0.00,Weather View 32 v70,2013-02-18 05:58:00,
2013-02-17 22:03:00,47.0,40.5,30.02,West,270,0.0,10.0,78,0.00,,,0.00,Weather View 32 v70,2013-02-18 06:03:00,
2013-02-17 22:08:00,47.0,41.5,30.01,SE,135,4.0,7.0,81,0.00,,,0.00,Weather View 32 v70,2013-02-18 06:08:00,
2013-02-17 22:12:00,47.0,41.5,30.01,SE,135,4.0,7.0,81,0.00,,,0.00,Weather View 32 v70,2013-02-18 06:12:00,
2013-02-17 22:13:00,47.0,40.5,30.01,NNE,22,0.0,7.0,78,0.00,,,0.00,Weather View 32 v70,2013-02-18 06:13:00,
2013-02-17 22:18:00,47.0,40.5,30.02,WSW,247,0.0,7.0,78,0.00,,,0.00,Weather View 32 v70,2013-02-18 06:18:00,
2013-02-17 22:23:00,47.0,40.5,30.02,SW,225,0.0,7.0,78,0.00,,,0.00,Weather View 32 v70,2013-02-18 06:23:00,
2013-02-17 22:28:00,47.0,40.5,30.02,SW,225,0.0,7.0,78,0.00,,,0.00,Weather View 32 v70,2013-02-18 06:28:00,
2013-02-17 22:38:00,47.0,40.5,30.02,West,270,0.0,8.0,78,0.00,,,0.00,Weather View 32 v70,2013-02-18 06:38:00,
2013-02-17 22:43:00,47.0,40.5,30.02,WSW,247,4.0,8.0,78,0.00,,,0.00,Weather View 32 v70,2013-02-18 06:43:00,
2013-02-17 22:48:00,47.0,40.5,30.02,NE,45,0.0,8.0,78,0.00,,,0.00,Weather View 32 v70,2013-02-18 06:48:00,
2013-02-17 22:53:00,47.0,40.5,30.02,ENE,67,0.0,8.0,78,0.00,,,0.00,Weather View 32 v70,2013-02-18 06:53:00,
2013-02-17 22:58:00,47.0,41.5,30.02,WSW,247,2.0,8.0,81,0.00,,,0.00,Weather View 32 v70,2013-02-18 06:58:00,
2013-02-17 23:03:00,47.0,40.5,30.02,WNW,292,0.0,8.0,78,0.00,,,0.00,Weather View 32 v70,2013-02-18 07:03:00,
2013-02-17 23:08:00,47.0,40.5,30.02,NNE,22,0.0,8.0,78,0.00,,,0.00,Weather View 32 v70,2013-02-18 07:08:00,
2013-02-17 23:12:00,47.0,40.5,30.02,NNE,22,0.0,8.0,78,0.00,,,0.00,Weather View 32 v70,2013-02-18 07:12:00,
2013-02-17 23:13:00,46.0,39.5,30.02,WNW,292,2.0,8.0,78,0.00,,,0.00,Weather View 32 v70,2013-02-18 07:13:00,
2013-02-17 23:18:00,47.0,40.5,30.02,West,270,0.0,8.0,78,0.00,,,0.00,Weather View 32 v70,2013-02-18 07:18:00,
2013-02-17 23:23:00,46.0,39.5,30.02,NE,45,0.0,8.0,78,0.00,,,0.00,Weather View 32 v70,2013-02-18 07:23:00,
2013-02-17 23:28:00,46.0,39.8,30.02,NNE,22,0.0,8.0,79,0.00,,,0.00,Weather View 32 v70,2013-02-18 07:28:00,
2013-02-17 23:33:00,47.0,41.8,30.02,West,270,0.0,8.0,82,0.00,,,0.00,Weather View 32 v70,2013-02-18 07:33:00,
2013-02-17 23:38:00,47.0,40.5,30.02,ENE,67,0.0,6.0,78,0.00,,,0.00,Weather View 32 v70,2013-02-18 07:38:00,
2013-02-17 23:43:00,47.0,40.5,30.02,NE,45,0.0,6.0,78,0.00,,,0.00,Weather View 32 v70,2013-02-18 07:43:00,
2013-02-17 23:47:00,46.0,39.5,30.02,NNE,22,0.0,5.0,78,0.00,,,0.00,Weather View 32 v70,2013-02-18 07:47:00,
2013-02-17 23:52:00,46.0,39.5,30.02,ENE,67,3.0,5.0,78,0.00,,,0.00,Weather View 32 v70,2013-02-18 07:52:00,
2013-02-17 23:58:00,47.0,40.5,30.02,NE,45,2.0,5.0,78,0.00,,,0.00,Weather View 32 v70,2013-02-18 07:58:00,